1484762400.18,941,7.06,73922.0,-15.05,-45.07,-45.13,0,*68
1484762401.44,942,7.06,73922.0,-15.05,-44.79,-45.07,0,*66
1484762402.65,943,7.06,73920.0,-15.03,-44.79,-44.99,0,*67
1484762403.86,944,7.06,73926.3,-15.03,-44.87,-44.99,0,*61
1484762405.1,945,7.06,73924.3,-15.03,-44.87,-45.07,0,*66
1484762406.3,946,7.06,73922.5,-15.03,-45.13,-45.33,0,*6E
1484762407.53,947,7.06,73922.3,-15.05,-44.87,-45.13,0,*67
1484762408.74,948,7.06,73922.0,-15.03,-44.99,-45.13,0,*61
1484762409.99,949,7.06,73922.3,-15.03,-45.07,-45.27,0,*61
1484762411.25,950,7.06,73922.8,-15.03,-45.07,-45.27,0,*69
1484762412.48,951,7.06,73922.0,-15.05,-44.99,-45.13,0,*6F
1484762413.68,952,7.06,73920.0,-15.03,-44.99,-44.99,0,*69
1484762414.89,953,7.06,73920.3,-15.03,-44.79,-44.99,0,*66
1484762416.12,954,7.06,73920.0,-15.03,-44.67,-44.99,0,*6E
1484762417.37,955,7.06,73918.0,-15.05,-44.67,-44.87,0,*66
1484762418.58,956,7.06,73922.3,-15.03,-44.79,-44.99,0,*63
1484762419.84,957,7.06,73920.8,-15.05,-44.67,-44.79,0,*65
1484762421.06,958,7.06,73922.5,-15.03,-44.67,-44.99,0,*62
1484762422.3,959,7.06,73920.8,-15.03,-44.87,-45.07,0,*6B
1484762423.53,960,7.06,73920.5,-15.03,-44.99,-45.07,0,*6E
1484762424.76,961,7.06,73922.3,-15.05,-44.79,-44.79,0,*6F
1484762426.0,962,7.06,73922.8,-15.03,-44.87,-45.07,0,*63
1484762427.24,963,7.13,73924.8,-15.05,-44.87,-44.99,0,*62
1484762428.47,964,7.06,73920.8,-15.03,-44.79,-45.07,0,*64
1484762429.7,965,7.06,73922.3,-15.05,-44.99,-45.13,0,*68
1484762430.96,966,7.06,73920.5,-15.05,-44.99,-45.27,0,*6C
1484762432.16,967,7.06,73922.8,-15.03,-44.99,-45.13,0,*6C
1484762433.39,968,7.06,73916.8,-15.05,-44.99,-45.13,0,*65
1484762434.64,969,7.06,73920.0,-15.03,-45.07,-45.27,0,*63
1484762435.91,970,7.06,73920.0,-15.05,-44.87,-45.07,0,*66
1484762437.19,971,7.06,73918.8,-15.05,-45.07,-45.27,0,*6C
1484762438.44,972,7.06,73922.3,-15.05,-44.67,-44.99,0,*6C
1484762439.7,973,7.06,73922.8,-15.05,-44.67,-44.87,0,*62
1484762440.96,974,7.06,73920.3,-15.05,-44.67,-44.87,0,*65
1484762442.18,975,7.06,73920.8,-15.03,-44.67,-44.99,0,*6D
1484762443.42,976,7.06,73922.8,-15.05,-44.61,-44.87,0,*61
1484762444.65,977,7.06,73920.5,-15.05,-44.79,-44.79,0,*68
1484762445.91,978,7.06,73920.5,-15.05,-44.67,-44.79,0,*68
1484762447.17,979,7.06,73922.5,-15.05,-44.87,-45.07,0,*6F
1484762448.4,980,7.06,73920.8,-15.03,-44.67,-44.79,0,*69
1484762449.64,981,7.06,73922.5,-15.05,-44.79,-44.87,0,*60
1484762450.86,982,7.06,73920.8,-15.03,-44.67,-44.79,0,*6B
1484762452.12,983,7.06,73920.3,-15.05,-44.47,-44.79,0,*6E
1484762453.34,984,7.06,73922.0,-15.03,-44.67,-44.79,0,*6D
1484762454.57,985,7.06,73920.0,-15.03,-44.67,-44.87,0,*6D
1484762455.79,986,7.06,73924.0,-15.03,-44.87,-44.87,0,*60
1484762457.0,987,7.06,73926.0,-15.03,-44.79,-44.87,0,*60
1484762458.21,988,7.06,73922.0,-15.03,-44.79,-44.99,0,*60
1484762459.41,989,7.06,73922.5,-15.03,-44.61,-44.79,0,*66
1484762460.64,990,7.06,73924.5,-15.03,-44.47,-44.79,0,*6A
1484762461.85,991,7.06,73922.8,-15.03,-44.79,-44.79,0,*66
1484762463.1,992,7.06,73922.3,-15.05,-44.67,-44.79,0,*6C
1484762464.33,993,7.06,73920.3,-15.01,-44.61,-44.79,0,*6F
1484762465.57,994,7.06,73922.8,-15.03,-44.87,-45.27,0,*68
1484762466.77,995,7.06,73920.3,-15.03,-44.79,-44.99,0,*6C
1484762468.01,996,7.06,73922.8,-15.03,-44.67,-44.87,0,*6F
1484762469.23,997,7.06,73920.8,-15.03,-44.67,-44.87,0,*6E
1484762470.46,998,7.06,73922.3,-15.01,-44.61,-44.79,0,*64
1484762471.69,999,7.06,73924.8,-15.03,-44.61,-44.93,0,*63
1484762472.91,1000,7.06,73922.3,-15.03,-44.79,-44.87,0,*57
1484762474.15,1001,7.06,73920.0,-15.03,-44.87,-45.07,0,*5E
1484762475.37,1002,7.06,73922.0,-15.03,-44.79,-44.99,0,*5A
1484762476.61,1003,7.06,73920.5,-15.05,-44.79,-44.99,0,*5D
1484762477.85,1004,7.06,73924.5,-15.03,-44.87,-45.07,0,*5B
1484762479.07,1005,7.06,73920.5,-15.03,-44.87,-44.99,0,*5C
1484762480.28,1006,7.06,73922.8,-15.03,-44.61,-44.87,0,*58
1484762481.49,1007,7.06,73924.3,-15.03,-44.61,-44.79,0,*58
1484762482.72,1008,7.06,73926.0,-15.03,-44.47,-44.79,0,*53
1484762483.97,1009,7.06,73922.8,-15.03,-44.47,-44.67,0,*5D
1484762485.2,1010,7.06,73922.8,-15.03,-44.67,-44.99,0,*56
1484762486.42,1011,7.06,73920.3,-15.03,-44.87,-44.99,0,*59
1484762487.65,1012,7.06,73922.5,-15.03,-44.67,-44.87,0,*5B
1484762488.89,1013,7.06,73924.8,-15.03,-44.67,-44.87,0,*5A
1484762490.13,1014,7.06,73922.8,-15.01,-44.79,-44.99,0,*5F
1484762491.42,1015,7.06,73926.3,-15.01,-44.73,-44.93,0,*5E
1484762492.68,1016,7.06,73924.8,-15.01,-44.73,-44.99,0,*57
1484762493.96,1017,7.06,73920.8,-15.01,-44.73,-44.73,0,*52
1484762495.19,1018,7.06,73922.8,-15.01,-44.61,-44.79,0,*54
1484762496.46,1019,7.06,73920.3,-15.01,-44.73,-44.79,0,*56
1484762497.71,1020,7.06,73924.3,-15.01,-44.53,-44.73,0,*54
1484762498.95,1021,7.06,73922.5,-15.01,-44.61,-44.79,0,*5E
1484762500.2,1022,7.06,73926.5,-15.01,-44.41,-44.73,0,*55
1484762501.44,1023,7.06,73926.0,-15.01,-44.53,-44.61,0,*54
1484762502.69,1024,7.06,73922.8,-15.01,-44.61,-44.73,0,*51
1484762503.95,1025,7.06,73920.5,-15.01,-44.53,-44.73,0,*51
1484762505.19,1026,7.06,73926.8,-15.01,-44.61,-44.79,0,*59
1484762506.45,1027,7.06,73924.5,-15.01,-44.73,-44.99,0,*55
1484762507.71,1028,7.06,73926.0,-15.01,-44.53,-44.93,0,*52
1484762508.98,1029,7.06,73922.0,-15.01,-44.79,-44.93,0,*5B
1484762510.24,1030,7.06,73920.5,-14.99,-44.73,-44.73,0,*57
1484762511.47,1031,7.06,73920.3,-15.01,-44.61,-44.79,0,*5F
1484762512.71,1032,7.06,73924.8,-15.01,-44.79,-44.99,0,*5B
1484762513.92,1033,7.06,73920.8,-14.99,-44.79,-44.99,0,*5A
1484762515.19,1034,7.06,73922.3,-15.01,-44.93,-45.21,0,*5B
1484762516.45,1035,7.06,73922.8,-14.99,-44.73,-44.93,0,*5C
1484762517.69,1036,7.06,73922.3,-15.01,-44.79,-44.99,0,*5F
1484762518.95,1037,7.06,73918.8,-14.99,-44.73,-44.93,0,*5E
1484762520.21,1038,7.06,73922.5,-15.01,-44.61,-44.93,0,*52
1484762521.48,1039,7.06,73920.0,-15.01,-44.61,-44.93,0,*53
1484762522.71,1040,7.06,73924.8,-14.99,-44.73,-44.79,0,*5A
1484762523.97,1041,7.06,73922.8,-15.01,-44.61,-44.93,0,*5C
1484762525.23,1042,7.06,73920.5,-15.01,-44.93,-44.99,0,*58
1484762526.46,1043,7.06,73922.3,-14.99,-44.73,-44.99,0,*57
1484762527.7,1044,7.06,73926.0,-14.99,-44.61,-44.73,0,*57
1484762528.93,1045,7.06,73924.5,-14.99,-44.61,-44.73,0,*56
1484762530.14,1046,7.06,73926.0,-14.99,-44.79,-44.79,0,*56
1484762531.37,1047,7.06,73920.8,-15.01,-44.61,-44.79,0,*5E
1484762532.6,1048,7.06,73920.8,-15.01,-44.61,-44.79,0,*51
1484762533.87,1049,7.06,73920.8,-14.99,-44.73,-44.93,0,*57
1484762535.1,1050,7.06,73920.3,-14.99,-44.61,-44.93,0,*5C
1484762536.31,1051,7.06,73920.3,-14.99,-44.61,-44.79,0,*59
1484762537.54,1052,7.06,73924.5,-15.01,-44.53,-44.79,0,*5B
1484762538.75,1053,7.06,73920.8,-14.99,-44.79,-44.99,0,*5C
1484762540.01,1054,7.06,73920.3,-14.99,-44.73,-44.93,0,*5B
1484762541.23,1055,7.06,73920.5,-14.99,-44.79,-44.79,0,*54
1484762542.47,1056,7.06,73926.5,-14.99,-44.79,-44.73,0,*5D
1484762543.71,1057,7.06,73924.0,-15.01,-44.79,-44.99,0,*58
1484762544.95,1058,7.06,73924.8,-14.99,-44.79,-44.93,0,*5D
1484762546.21,1059,7.06,73924.5,-14.99,-44.73,-44.93,0,*56
1484762547.44,1060,7.06,73922.8,-14.99,-44.61,-44.73,0,*51
1484762548.65,1061,7.06,73924.3,-14.99,-44.61,-44.79,0,*5A
1484762549.86,1062,7.06,73922.8,-14.99,-44.79,-44.79,0,*50
1484762551.07,1063,7.06,73926.0,-14.99,-44.79,-44.99,0,*5F
1484762552.34,1064,7.06,73920.3,-14.97,-44.73,-44.87,0,*53
1484762553.6,1065,7.06,73918.3,-14.99,-44.73,-44.93,0,*59
1484762554.86,1066,7.06,73920.5,-14.99,-44.73,-44.93,0,*5A
1484762556.13,1067,7.06,73924.0,-14.99,-44.73,-44.93,0,*5B
1484762557.38,1068,7.06,73922.8,-14.99,-44.73,-44.73,0,*5A
1484762558.6,1069,7.06,73924.3,-14.99,-44.79,-44.99,0,*55
1484762559.86,1070,7.06,73926.8,-14.99,-44.73,-44.93,0,*5D
1484762561.09,1071,7.06,73920.5,-14.99,-44.61,-44.93,0,*5F
1484762562.38,1072,7.06,73926.5,-14.97,-44.73,-44.73,0,*5F
1484762563.64,1073,7.06,73920.3,-14.97,-44.67,-44.87,0,*50
1484762564.92,1074,7.06,73920.8,-14.97,-44.67,-44.73,0,*5C
1484762566.16,1075,7.06,73926.8,-14.99,-44.73,-44.79,0,*5C
1484762567.44,1076,7.06,73924.3,-14.97,-44.47,-44.73,0,*5C
1484762568.72,1077,7.06,73924.0,-14.97,-44.67,-44.73,0,*5F
1484762569.95,1078,7.06,73922.5,-14.99,-44.73,-44.79,0,*51
1484762571.22,1079,7.06,73924.5,-14.97,-44.73,-44.87,0,*5F
1484762572.48,1080,7.06,73922.3,-14.97,-44.67,-44.87,0,*5C
1484762573.74,1081,7.06,73924.5,-14.97,-44.73,-44.87,0,*58
1484762575.0,1082,7.06,73922.5,-14.97,-44.53,-44.73,0,*52
1484762576.26,1083,7.06,73924.3,-14.97,-44.67,-44.87,0,*5F
1484762577.51,1084,7.06,73926.8,-14.95,-44.67,-44.93,0,*5F
1484762578.77,1085,7.06,73924.5,-14.95,-44.73,-44.93,0,*5B
1484762580.03,1086,7.06,73924.5,-14.97,-44.93,-44.99,0,*5E
1484762581.29,1087,7.06,73922.3,-14.97,-44.73,-44.99,0,*51
1484762582.55,1088,7.06,73924.5,-14.97,-44.73,-44.99,0,*5E
1484762583.84,1089,7.06,73922.5,-14.97,-44.73,-44.93,0,*55
1484762585.11,1090,7.06,73926.0,-14.97,-44.87,-44.93,0,*56
1484762586.4,1091,7.06,73924.3,-14.97,-44.73,-44.93,0,*5C
1484762587.69,1092,7.06,73924.3,-14.97,-44.73,-44.93,0,*5F
1484762588.95,1093,7.06,73922.5,-14.97,-44.73,-44.87,0,*5B
1484762590.21,1094,7.06,73920.0,-14.97,-44.93,-45.13,0,*5E
1484762591.45,1095,7.06,73924.3,-14.97,-44.87,-45.13,0,*5A
1484762592.65,1096,7.06,73926.0,-14.95,-44.99,-45.13,0,*54
1484762593.89,1097,7.06,73924.0,-14.97,-44.99,-44.99,0,*54
1484762595.12,1098,7.06,73924.3,-14.97,-45.13,-45.21,0,*5A
1484762596.36,1099,7.06,73924.5,-14.97,-45.21,-45.53,0,*5F
1484762597.6,1100,7.06,73926.3,-14.97,-45.21,-45.53,0,*5E
1484762598.83,1101,7.06,73924.3,-14.97,-45.33,-45.53,0,*5C
1484762600.09,1102,7.06,73924.5,-14.99,-45.27,-45.47,0,*51
1484762601.33,1103,7.06,73926.0,-14.99,-45.27,-45.67,0,*52
1484762602.53,1104,7.06,73922.8,-14.99,-45.41,-45.67,0,*55
1484762603.79,1105,7.06,73920.8,-14.99,-45.07,-45.27,0,*52
1484762605.05,1106,7.06,73926.3,-15.01,-44.99,-45.27,0,*57
1484762606.34,1107,7.06,73922.5,-15.01,-45.07,-45.27,0,*50
1484762607.57,1108,7.06,73926.0,-14.99,-44.99,-45.27,0,*59
1484762608.81,1109,7.06,73920.3,-14.99,-44.99,-45.27,0,*58
1484762610.07,1110,7.06,73922.8,-14.99,-45.07,-45.27,0,*56
1484762611.31,1111,7.06,73924.5,-14.99,-44.93,-45.21,0,*5D
1484762612.57,1112,7.06,73924.3,-15.01,-45.07,-45.41,0,*54
1484762613.83,1113,7.06,73926.5,-14.99,-45.27,-45.47,0,*51
1484762615.1,1114,7.06,73924.5,-15.01,-45.27,-45.61,0,*52
1484762616.36,1115,7.06,73924.8,-14.99,-45.27,-45.47,0,*57
1484762617.56,1116,7.06,73920.0,-14.99,-45.41,-45.67,0,*56
1484762618.79,1117,7.06,73926.8,-14.99,-45.21,-45.47,0,*53
1484762620.08,1118,7.06,73924.5,-15.01,-45.27,-45.47,0,*5A
1484762621.32,1119,7.06,73922.8,-15.01,-45.21,-45.41,0,*5B
1484762622.55,1120,7.06,73922.8,-15.01,-44.99,-45.41,0,*53
1484762623.76,1121,7.06,73922.5,-15.03,-45.13,-45.33,0,*56
1484762624.99,1122,7.06,73926.0,-15.03,-45.13,-45.47,0,*56
1484762626.24,1123,7.06,73922.0,-15.03,-45.27,-45.53,0,*55
1484762627.52,1124,7.06,73924.8,-15.05,-45.47,-45.73,0,*50
1484762628.74,1125,7.06,73920.0,-15.03,-45.53,-45.87,0,*59
1484762629.97,1126,7.06,73926.0,-15.03,-45.47,-45.67,0,*51
1484762631.2,1127,7.06,73924.3,-15.03,-45.13,-45.47,0,*53
1484762632.46,1128,7.06,73924.5,-15.01,-45.07,-45.41,0,*5D
1484762633.69,1129,7.06,73922.8,-15.03,-45.13,-45.47,0,*5D
1484762634.92,1130,7.06,73920.5,-15.05,-45.13,-45.33,0,*50
1484762636.19,1131,7.06,73922.8,-15.03,-45.07,-45.27,0,*57
1484762637.4,1132,7.06,73922.0,-15.03,-44.99,-45.33,0,*57
1484762638.63,1133,7.06,73922.5,-15.03,-45.13,-45.47,0,*56
1484762639.92,1134,7.06,73924.3,-15.05,-45.27,-45.47,0,*50
1484762641.16,1135,7.06,73922.8,-15.05,-45.13,-45.33,0,*55
1484762642.39,1136,7.06,73924.5,-15.05,-45.13,-45.33,0,*56
1484762643.66,1137,7.06,73924.5,-15.03,-45.07,-45.27,0,*51
1484762644.92,1138,7.06,73924.8,-15.03,-45.07,-45.27,0,*5E
1484762646.18,1139,7.06,73920.5,-15.05,-45.13,-45.27,0,*5C
1484762647.44,1140,7.06,73926.8,-15.05,-45.13,-45.47,0,*54
1484762648.7,1141,7.06,73924.0,-15.03,-45.27,-45.47,0,*54
1484762649.94,1142,7.06,73924.0,-15.05,-45.33,-45.53,0,*51
1484762651.19,1143,7.06,73926.8,-15.05,-45.47,-45.67,0,*54
1484762652.43,1144,7.06,73926.5,-15.05,-45.33,-45.53,0,*57
1484762653.69,1145,7.06,73922.8,-15.05,-45.47,-45.53,0,*55
1484762654.94,1146,7.06,73922.3,-15.05,-45.33,-45.73,0,*57
1484762656.21,1147,7.06,73924.0,-15.05,-45.53,-45.73,0,*50
1484762657.44,1148,7.06,73924.3,-15.03,-45.53,-45.73,0,*59
1484762658.69,1149,7.06,73924.5,-15.05,-45.33,-45.47,0,*5F
1484762659.9,1150,7.06,73924.3,-15.07,-45.13,-45.33,0,*54
1484762661.16,1151,7.06,73922.5,-15.07,-45.27,-45.47,0,*51
1484762662.4,1152,7.06,73924.8,-15.07,-45.27,-45.33,0,*51
1484762663.64,1153,7.06,73922.0,-15.07,-45.27,-45.33,0,*50
1484762664.87,1154,7.06,73922.3,-15.07,-45.13,-45.47,0,*53
1484762666.11,1155,7.06,73926.0,-15.07,-45.47,-45.53,0,*56
1484762667.33,1156,7.06,73924.0,-15.07,-45.33,-45.47,0,*53
1484762668.57,1157,7.06,73922.3,-15.07,-45.27,-45.53,0,*52
1484762669.81,1158,7.06,73922.3,-15.09,-45.21,-45.41,0,*56
1484762671.08,1159,7.06,73922.8,-15.05,-45.27,-45.33,0,*58
1484762672.34,1160,7.06,73920.3,-15.05,-45.13,-45.47,0,*56
1484762673.6,1161,7.06,73922.0,-15.05,-45.47,-45.67,0,*54
1484762674.82,1162,7.06,73922.8,-15.07,-45.47,-45.67,0,*55
1484762676.06,1163,7.06,73920.8,-15.09,-45.41,-45.61,0,*5A
1484762677.31,1164,7.06,73922.0,-15.07,-45.47,-45.47,0,*51
1484762678.54,1165,7.06,73922.3,-15.07,-45.33,-45.47,0,*53
1484762679.77,1166,7.06,73918.8,-15.09,-45.41,-45.61,0,*5F
1484762681.03,1167,7.06,73922.3,-15.09,-45.53,-45.73,0,*5E
1484762682.29,1168,7.06,73922.8,-15.09,-45.53,-45.73,0,*51
1484762683.53,1169,7.06,73920.8,-15.09,-45.13,-45.21,0,*53
1484762684.78,1170,7.06,73922.3,-15.09,-45.21,-45.21,0,*5A
1484762686.06,1171,7.06,73924.5,-15.09,-44.73,-45.07,0,*59
1484762687.33,1172,7.06,73924.8,-15.09,-44.67,-44.87,0,*56
1484762688.59,1173,7.06,73928.0,-15.09,-44.53,-44.93,0,*55
1484762689.8,1174,7.06,73926.5,-15.07,-44.61,-44.79,0,*59
1484762691.09,1175,7.06,73924.3,-15.09,-44.73,-44.93,0,*51
1484762692.3,1176,7.06,73922.8,-15.07,-44.61,-44.79,0,*5B
1484762693.51,1177,7.06,73924.3,-15.07,-44.79,-44.87,0,*52
1484762694.73,1178,7.06,73924.3,-15.07,-44.87,-44.87,0,*5C
1484762695.97,1179,7.06,73922.3,-15.05,-44.87,-44.99,0,*50
1484762697.26,1180,7.06,73926.5,-15.05,-45.07,-45.07,0,*59
1484762698.52,1181,7.06,73924.3,-15.05,-45.07,-45.13,0,*5D
1484762699.81,1182,7.06,73924.3,-15.05,-45.27,-45.47,0,*5D
1484762701.1,1183,7.06,73922.0,-15.05,-45.27,-45.47,0,*5C
1484762702.4,1184,7.06,73926.5,-15.05,-45.27,-45.47,0,*5B
1484762703.62,1185,7.06,73924.0,-15.07,-45.33,-45.73,0,*5A
1484762704.86,1186,7.06,73922.3,-15.09,-45.53,-45.95,0,*59
1484762706.09,1187,7.06,73922.5,-15.09,-45.33,-45.41,0,*57
1484762707.33,1188,7.06,73926.5,-15.09,-45.21,-45.33,0,*5E
1484762708.56,1189,7.06,73926.3,-15.09,-45.13,-45.33,0,*5E
1484762709.8,1190,7.06,73920.8,-15.07,-44.99,-45.27,0,*5E
1484762711.04,1191,7.06,73926.0,-15.07,-44.87,-45.07,0,*52
1484762712.27,1192,7.06,73922.8,-15.07,-45.13,-45.27,0,*5F
1484762713.48,1193,7.06,73922.8,-15.07,-44.87,-45.13,0,*55
1484762714.69,1194,7.06,73922.8,-15.07,-44.61,-44.79,0,*57
1484762715.92,1195,7.06,73924.0,-15.07,-44.67,-44.87,0,*51
1484762717.21,1196,7.06,73920.5,-15.09,-44.73,-44.93,0,*5C
1484762718.45,1197,7.06,73920.3,-15.07,-44.73,-44.99,0,*59
1484762719.72,1198,7.06,73920.5,-15.09,-44.87,-45.07,0,*55
1484762720.95,1199,7.06,73920.5,-15.07,-44.87,-45.07,0,*5A
1484762722.17,1200,7.06,73926.3,-15.07,-44.87,-44.99,0,*5F
1484762723.38,1201,7.06,73924.5,-15.07,-44.87,-44.99,0,*5E
1484762724.61,1202,7.06,73922.8,-15.07,-44.67,-44.87,0,*5C
1484762725.86,1203,7.06,73926.0,-15.05,-44.87,-44.99,0,*5E
1484762727.1,1204,7.06,73922.8,-15.05,-44.79,-44.87,0,*57
1484762728.35,1205,7.06,73926.0,-15.05,-44.79,-44.99,0,*59
1484762729.61,1206,7.06,73924.3,-15.05,-44.99,-45.27,0,*50
1484762730.82,1207,7.06,73922.8,-15.07,-44.99,-45.13,0,*54
1484762732.05,1208,7.06,73924.8,-15.07,-44.87,-45.07,0,*51
1484762733.32,1209,7.06,73924.0,-15.05,-44.99,-45.27,0,*5F
1484762734.53,1210,7.06,73922.8,-15.07,-45.13,-45.33,0,*53
1484762735.77,1211,7.06,73924.0,-15.05,-44.87,-45.13,0,*5E
1484762737.03,1212,7.06,73920.5,-15.05,-44.79,-45.07,0,*59
1484762738.27,1213,7.06,73926.5,-15.07,-45.07,-44.99,0,*54
1484762739.52,1214,7.06,73926.3,-15.07,-45.07,-45.07,0,*55
1484762740.79,1215,7.06,73924.8,-15.05,-44.99,-45.27,0,*52
1484762742.05,1216,7.0,73922.3,-15.07,-45.27,-45.47,0,*51
1484762743.26,1217,7.06,73922.3,-15.07,-45.13,-45.33,0,*54
1484762744.55,1218,7.06,73920.8,-15.05,-45.07,-45.27,0,*59
1484762745.75,1219,7.06,73920.5,-15.07,-45.13,-45.33,0,*5A
1484762746.99,1220,7.06,73924.5,-15.05,-45.13,-45.33,0,*52
1484762748.23,1221,7.0,73922.3,-15.07,-45.27,-45.33,0,*56
1484762749.46,1222,7.06,73920.5,-15.07,-45.07,-45.33,0,*57
1484762750.66,1223,7.06,73922.8,-15.07,-45.13,-45.13,0,*51
1484762751.9,1224,7.06,73920.0,-15.07,-45.07,-45.33,0,*51
1484762753.13,1225,7.06,73920.5,-15.07,-45.07,-45.33,0,*50
1484762754.34,1226,7.06,73924.8,-15.07,-45.13,-45.33,0,*56
1484762755.6,1227,7.06,73926.0,-15.07,-45.07,-45.27,0,*57
1484762756.83,1228,7.06,73926.0,-15.07,-44.99,-45.27,0,*5E
1484762758.07,1229,7.06,73922.0,-15.09,-45.13,-45.53,0,*51
1484762759.31,1230,7.06,73920.3,-15.09,-45.21,-45.41,0,*5B
1484762760.55,1231,7.06,73920.8,-15.09,-45.33,-45.53,0,*5A
1484762761.81,1232,7.06,73926.0,-15.07,-45.27,-45.47,0,*57
1484762763.01,1233,7.06,73926.3,-15.07,-45.41,-45.53,0,*53
1484762764.25,1234,7.0,73922.0,-15.09,-45.33,-45.53,0,*5F
1484762765.48,1235,7.06,73922.8,-15.09,-45.41,-45.53,0,*5B
1484762766.72,1236,7.06,73922.3,-15.09,-45.21,-45.41,0,*5D
1484762767.96,1237,7.0,73920.5,-15.09,-45.13,-45.21,0,*5B
1484762769.2,1238,7.0,73920.8,-15.09,-45.13,-45.41,0,*52
1484762770.44,1239,7.06,73926.0,-15.09,-45.21,-45.41,0,*52
1484762771.67,1240,7.0,73920.3,-15.09,-45.33,-45.53,0,*5C
1484762772.9,1241,7.06,73922.3,-15.09,-45.33,-45.53,0,*5D
1484762774.12,1242,7.06,73924.0,-15.07,-45.33,-45.47,0,*55
1484762775.36,1243,7.06,73920.3,-15.09,-45.13,-45.41,0,*5E
1484762776.6,1244,7.06,73920.3,-15.09,-45.13,-45.21,0,*5F
1484762777.86,1245,7.06,73920.0,-15.09,-45.41,-45.81,0,*53
1484762779.12,1246,7.06,73924.5,-15.09,-45.41,-45.81,0,*50
1484762780.34,1247,7.06,73924.3,-15.07,-45.33,-45.47,0,*50
1484762781.57,1248,7.06,73922.0,-15.09,-45.13,-45.33,0,*50
1484762782.84,1249,7.06,73920.5,-15.09,-45.07,-45.21,0,*57
1484762784.08,1250,7.06,73920.8,-15.09,-45.21,-45.21,0,*5B
1484762785.32,1251,7.06,73924.5,-15.09,-45.21,-45.33,0,*59
1484762786.55,1252,7.06,73920.0,-15.09,-45.13,-45.13,0,*59
1484762787.78,1253,7.06,73920.5,-15.09,-45.33,-45.41,0,*5D
1484762789.04,1254,7.06,73922.5,-15.09,-44.93,-45.13,0,*56
1484762790.31,1255,7.06,73920.8,-15.09,-45.07,-45.21,0,*5A
1484762791.55,1256,7.06,73920.5,-15.09,-45.13,-45.33,0,*5F
1484762792.78,1257,7.06,73922.8,-15.09,-45.13,-45.41,0,*5B
1484762794.01,1258,7.06,73924.5,-15.13,-45.33,-45.41,0,*5D
1484762795.22,1259,7.06,73924.8,-15.15,-45.21,-45.41,0,*59
1484762796.46,1260,7.06,73924.3,-15.15,-45.21,-45.27,0,*53
1484762797.72,1261,7.06,73926.0,-15.13,-45.07,-45.13,0,*57
1484762799.01,1262,7.06,73922.3,-15.13,-44.93,-45.07,0,*5D
1484762800.27,1263,7.0,73922.0,-15.09,-45.07,-45.21,0,*5F
1484762801.56,1264,7.06,73922.8,-15.09,-44.93,-45.07,0,*50
1484762802.83,1265,7.06,73924.5,-15.09,-44.93,-45.21,0,*55
1484762804.07,1266,7.06,73922.8,-15.09,-45.13,-45.21,0,*5F
1484762805.33,1267,7.06,73920.3,-15.09,-45.07,-45.21,0,*5B
1484762806.57,1268,7.06,73922.8,-15.09,-45.13,-45.33,0,*52
1484762807.84,1269,7.06,73926.5,-15.09,-45.21,-45.27,0,*57
1484762809.08,1270,7.06,73926.0,-15.13,-45.21,-45.53,0,*57
1484762810.31,1271,7.06,73922.5,-15.13,-45.33,-45.41,0,*56
1484762811.54,1272,7.0,73922.3,-15.15,-45.41,-45.47,0,*50
1484762812.77,1273,7.06,73924.5,-15.13,-45.33,-45.41,0,*54
1484762814.0,1274,7.06,73922.3,-15.13,-45.33,-45.53,0,*50
1484762815.27,1275,7.06,73920.5,-15.15,-45.27,-45.47,0,*57
1484762816.5,1276,7.06,73922.8,-15.13,-45.33,-45.41,0,*51
1484762817.7,1277,7.06,73922.8,-15.15,-45.33,-45.41,0,*56
1484762818.96,1278,7.06,73920.3,-15.13,-44.93,-45.21,0,*52
1484762820.23,1279,7.0,73920.0,-15.13,-45.07,-45.13,0,*5E
1484762821.47,1280,7.06,73920.8,-15.13,-44.87,-45.13,0,*51
1484762822.73,1281,7.06,73922.8,-15.13,-44.87,-45.07,0,*55
1484762824.01,1282,7.0,73920.3,-15.13,-44.87,-44.93,0,*5A
1484762825.3,1283,7.06,73922.3,-15.13,-44.93,-45.07,0,*52
1484762826.57,1284,7.06,73922.5,-15.13,-44.87,-44.93,0,*5C
1484762827.86,1285,7.06,73920.0,-15.13,-44.93,-44.93,0,*58
1484762829.15,1286,7.06,73920.8,-15.09,-44.93,-45.07,0,*5C
1484762830.41,1287,7.06,73922.8,-15.09,-45.07,-45.13,0,*54
1484762831.65,1288,7.06,73924.3,-15.07,-44.87,-45.07,0,*59
1484762832.91,1289,7.06,73922.0,-15.09,-45.07,-45.13,0,*5A
1484762834.17,1290,7.06,73924.5,-15.13,-45.07,-45.13,0,*59
1484762835.46,1291,7.0,73922.0,-15.13,-44.93,-45.07,0,*51
1484762836.73,1292,7.06,73922.5,-15.09,-44.87,-44.93,0,*50
1484762838.0,1293,7.06,73920.0,-15.09,-44.87,-45.07,0,*5D
1484762839.23,1294,7.06,73924.5,-15.07,-44.67,-44.87,0,*53
1484762840.52,1295,7.06,73922.0,-15.13,-44.73,-44.93,0,*57
1484762841.79,1296,7.06,73920.0,-15.09,-44.93,-45.21,0,*59
1484762843.03,1297,7.0,73920.5,-15.09,-45.13,-45.33,0,*52
1484762844.27,1298,7.06,73922.3,-15.09,-45.21,-45.33,0,*5C
1484762845.52,1299,7.06,73922.5,-15.07,-45.07,-45.07,0,*50
1484762846.79,1300,7.06,73922.5,-15.09,-45.07,-45.21,0,*5B
1484762848.02,1301,7.06,73922.3,-15.09,-45.13,-45.13,0,*5E
1484762849.29,1302,7.06,73924.5,-15.09,-45.07,-45.21,0,*59
1484762850.55,1303,7.06,73922.5,-15.09,-44.93,-45.13,0,*55
1484762851.83,1304,7.06,73922.5,-15.09,-45.07,-45.07,0,*5B
1484762853.12,1305,7.0,73922.0,-15.09,-44.93,-45.07,0,*56
1484762854.38,1306,7.06,73926.0,-15.09,-44.93,-45.13,0,*50
1484762855.63,1307,7.0,73920.5,-15.13,-45.21,-45.21,0,*53
1484762856.89,1308,7.06,73922.8,-15.13,-45.07,-45.33,0,*5B
1484762858.13,1309,7.06,73926.0,-15.13,-45.13,-45.21,0,*5C
1484762859.4,1310,7.06,73924.5,-15.13,-44.93,-45.21,0,*5D
1484762860.63,1311,7.06,73928.5,-15.13,-45.13,-45.13,0,*54
1484762861.87,1312,7.06,73922.8,-15.13,-45.13,-45.21,0,*56
1484762863.11,1313,7.06,73922.8,-15.15,-44.93,-45.21,0,*58
1484762864.34,1314,7.06,73922.8,-15.09,-45.41,-45.41,0,*5A
1484762865.58,1315,7.06,73922.3,-15.09,-45.13,-45.21,0,*5A
1484762866.79,1316,7.06,73922.8,-15.15,-45.13,-45.21,0,*54
1484762868.07,1317,7.0,73922.8,-15.13,-45.07,-45.07,0,*52
1484762869.34,1318,7.06,73924.0,-15.13,-44.93,-44.87,0,*58
1484762870.61,1319,7.06,73926.5,-15.13,-45.07,-45.21,0,*58
1484762871.86,1320,7.06,73924.5,-15.13,-44.87,-44.87,0,*56
1484762873.12,1321,7.06,73926.0,-15.13,-44.73,-44.87,0,*5C
1484762874.42,1322,7.06,73928.3,-15.13,-44.73,-44.93,0,*5A
1484762875.68,1323,7.06,73924.0,-15.13,-45.07,-45.21,0,*51
1484762876.94,1324,7.06,73928.0,-15.13,-44.93,-45.13,0,*5B
1484762878.21,1325,7.06,73924.0,-15.13,-44.87,-45.07,0,*5A
1484762879.48,1326,7.0,73922.8,-15.09,-44.73,-44.87,0,*50
1484762880.75,1327,7.0,73922.3,-15.09,-44.73,-44.87,0,*51
1484762882.01,1328,7.06,73924.5,-15.09,-44.87,-45.07,0,*5C
1484762883.26,1329,7.06,73924.8,-15.09,-44.87,-45.13,0,*58
1484762884.51,1330,7.06,73924.5,-15.09,-45.07,-45.13,0,*59
1484762885.75,1331,7.06,73926.8,-15.09,-45.13,-45.33,0,*5F
1484762887.02,1332,7.0,73922.5,-15.09,-45.07,-45.21,0,*5A
1484762888.3,1333,7.06,73924.0,-15.09,-44.93,-45.07,0,*53
1484762889.57,1334,7.06,73924.8,-15.13,-45.07,-45.21,0,*57
1484762890.86,1335,7.06,73924.8,-15.13,-44.93,-45.07,0,*5E
1484762892.13,1336,7.06,73926.0,-15.13,-44.87,-44.93,0,*54
1484762893.4,1337,7.06,73924.5,-15.09,-44.87,-45.07,0,*52
1484762894.67,1338,7.06,73926.0,-15.09,-44.87,-44.93,0,*51
1484762895.97,1339,7.06,73928.0,-15.09,-44.93,-44.93,0,*55
1484762897.23,1340,7.06,73922.5,-15.09,-45.07,-45.13,0,*5E
1484762898.47,1341,7.06,73924.8,-15.09,-45.21,-45.41,0,*5C
1484762899.7,1342,7.06,73920.5,-15.09,-45.33,-45.53,0,*5F
1484762900.93,1343,7.0,73920.8,-15.09,-45.41,-45.53,0,*5B
1484762902.17,1344,7.06,73924.8,-15.09,-45.21,-45.41,0,*59
1484762903.41,1345,7.0,73918.0,-15.09,-45.21,-45.41,0,*58
1484762904.68,1346,7.06,73924.0,-15.09,-45.07,-45.33,0,*5A
1484762905.92,1347,7.0,73920.5,-15.15,-45.21,-45.27,0,*57
1484762907.17,1348,7.06,73924.0,-15.09,-45.07,-45.13,0,*56